Location: Newark
(25.3833°N, 97.4000°E)
Time: 12:50:40
(UTC+00:00)

CAS-4A - Pass Details

Date: 05 March 2020
Orbit: 528 x 545 km, 43.0° (Epoch: 08 April)

Event Time Altitude Azimuth Distance (km) Brightness Sun altitude
Rises 22:47:15 0° 193° (SSW) 2,664 ? -14.7°
Reaches altitude 10° 22:50:18 10° 169° (SSE) 1,773 ? -14.0°
Maximum altitude 22:52:36 15° 134° (SE) 1,496 ? -13.5°
Drops below altitude 10° 22:54:53 10° 99° (E) 1,770 ? -12.9°
Sets 22:57:56 0° 75° (ENE) 2,659 ? -12.3°
